This demonstration page uses our WeatherBlox Daily Observations layout. Learn more.

Left ArrowRight Arrow

34.74481, -87.66753

Hourly Observations for February 24, 2018

Temp ( °F °C ) Dew Point ( °F °C ) Humidity (%) Winds ( mph kmh ) Pressure ( in mb ) Visibility ( mi km ) Precip ( " mm )
12:05 am 00:05 Cloudy with Heavy Rain 64 17.8 61 16.1 90 90 Calm 30.15 1021 1 2 0.10 2.54
12:12 am 00:12 Cloudy with Light Rain 63 17.2 60 15.6 90 90 SE 3 6 30.12 1020 3 5 0.11 2.79
12:53 am 00:53 Cloudy 63 17.2 60 15.6 90 90 ESE 6 9 30.12 1020 8 13 0.11 2.79
1:53 am 01:53 Cloudy 63 17.2 61 16.1 93 93 SE 5 7 30.10 1019 8 13 0.00 0.00
2:53 am 02:53 Cloudy 65 18.3 61 16.1 87 87 S 5 7 30.08 1019 10 16 0.00 0.00
3:53 am 03:53 Cloudy 64 17.8 61 16.1 90 90 SSE 6 9 30.06 1018 8 13 0.00 0.00
4:12 am 04:12 Cloudy 65 18.3 61 16.1 87 87 SSE 6 9 30.06 1018 8 13 0.00 0.00
4:53 am 04:53 Cloudy 67 19.4 62 16.7 84 84 S 14 22 30.06 1018 10 16 0.00 0.00
5:53 am 05:53 Cloudy 68 20 63 17.2 84 84 SSW 9 15 30.07 1018 10 16 0.00 0.00
6:39 am 06:39 Cloudy with Light Rain 67 19.4 63 17.2 87 87 SSW 8 13 30.06 1018 6 10 0.00 0.03
6:53 am 06:53 Cloudy 67 19.4 63 17.2 87 87 SSW 7 11 30.08 1019 9 14 0.00 0.03
7:15 am 07:15 Cloudy 68 20 63 17.2 84 84 SW 8 13 30.06 1018 10 16 0.00 0.00
7:35 am 07:35 Mostly Cloudy 68 20 64 17.8 87 87 SSW 9 15 30.06 1018 10 16 0.00 0.00
7:53 am 07:53 Mostly Cloudy 68 20 64 17.8 87 87 SSW 8 13 30.09 1019 10 16 0.00 0.00
8:53 am 08:53 Mostly Cloudy 70 21.1 64 17.8 82 82 SSW 9 15 30.09 1019 10 16 0.00 0.00
9:53 am 09:53 Mostly Cloudy 72 22.2 63 17.2 73 73 SW 16 26 30.08 1019 10 16 0.00 0.00
10:23 am 10:23 Mostly Cloudy 73 22.8 62 16.7 69 69 SSW 15 24 30.06 1018 10 16 0.00 0.00
10:53 am 10:53 Mostly Cloudy 74 23.3 62 16.7 67 67 SSW 14 22 30.05 1018 10 16 0.00 0.00
11:53 am 11:53 Partly Cloudy 75 23.9 62 16.7 64 64 S 13 20 30.01 1016 10 16 0.00 0.00
12:53 pm 12:53 Partly Cloudy 77 25 62 16.7 60 60 S 20 31 29.96 1015 10 16 0.00 0.00
1:53 pm 13:53 Partly Cloudy 78 25.6 61 16.1 56 56 S 17 28 29.92 1013 10 16 0.00 0.00
2:53 pm 14:53 Sunny 77 25 60 15.6 56 56 S 18 30 29.90 1012 10 16 0.00 0.00
3:53 pm 15:53 Mostly Cloudy 75 23.9 61 16.1 62 62 S 14 22 29.90 1013 10 16 0.00 0.00
4:53 pm 16:53 Sunny 74 23.3 61 16.1 64 64 S 12 19 29.90 1013 10 16 0.00 0.00
5:53 pm 17:53 Mostly Cloudy 73 22.8 61 16.1 66 66 SSE 15 24 29.86 1011 10 16 0.00 0.00
6:53 pm 18:53 Clear 71 21.7 61 16.1 71 71 S 15 24 29.87 1012 10 16 0.00 0.00
7:53 pm 19:53 Clear 71 21.7 62 16.7 73 73 S 18 30 29.88 1012 10 16 0.00 0.00
8:53 pm 20:53 Cloudy 71 21.7 62 16.7 73 73 S 12 19 29.88 1012 10 16 0.00 0.00
9:53 pm 21:53 Cloudy 71 21.7 63 17.2 76 76 S 18 30 29.88 1012 10 16 0.00 0.00
10:53 pm 22:53 Partly Cloudy 72 22.2 63 17.2 73 73 S 20 31 29.86 1011 10 16 0.00 0.00
11:24 pm 23:24 Mostly Cloudy 72 22.2 63 17.2 73 73 S 18 30 29.85 1011 10 16 0.00 0.00
11:53 pm 23:53 Mostly Cloudy 72 22.2 63 17.2 73 73 SSW 17 28 29.86 1011 10 16 0.00 0.00

Powered by AerisWeather